Location: Newark
(50.0306°N, 2.3272°E)
Time: 06:04:17
(UTC+00:00)

Transit 2A Rocket - Pass Details

Date: 13 December 2019
Orbit: 593 x 910 km, 66.7° (Epoch: 18 January)

Event Time Altitude Azimuth Distance (km) Brightness Sun altitude
Rises 01:09:59 0° 314° (NW) 2,881 - -58.3°
Reaches altitude 10° 01:12:29 10° 301° (WNW) 2,001 - -58.1°
Maximum altitude 01:16:09 25° 246° (WSW) 1,300 - -57.7°
Drops below altitude 10° 01:20:02 10° 191° (SSW) 2,116 - -57.3°
Sets 01:22:45 0° 179° (S) 3,084 - -57.0°
